#timestamp,LO_Frequency,Hit,StdDev 
1640275215.3,286046998.6,N
1640275235.1,286047000.6,N
1640275255.8,286047001.1,N
1640275275.7,286047000.0,N
1640275295.5,286047002.8,N
1640275315.4,286047002.8,N
1640275335.2,286046998.6,N
1640275355.0,286046998.6,N
1640275355.9,286046998.6,N
1640275375.8,286047000.3,N
1640275395.6,286047000.0,N
1640275415.5,286047000.1,N
1640275435.3,286047001.0,N
1640275455.1,286046999.7,N
1640275475.9,286047002.0,N
1640275495.7,286047002.8,N
1640275515.6,286047002.4,N
1640275535.4,286047002.4,N
1640275555.2,286047002.8,N
1640275575.1,286047002.1,N
1640275576.0,286047002.1,N
1640275595.8,286047004.2,N
1640275615.6,286047001.7,N
1640275635.5,286047001.7,N
1640275655.3,286047002.1,N
1640275675.2,286047001.8,N
1640275695.9,286047001.5,N
1640275715.7,286047001.9,N
1640275735.6,286047001.3,N
1640275755.4,286047003.5,N
1640275775.2,286047003.3,N
1640275795.1,286047001.8,N
1640275796.0,286047001.8,N
1640275815.8,286047002.0,N
1640275835.7,286047000.0,N
1640275855.5,286046999.7,N
1640275875.3,286047000.9,N
1640275895.2,286047000.8,N
1640275915.0,286046999.8,N
1640275915.9,286046999.8,N
1640275935.8,286047002.0,N
1640275955.6,286047001.8,N
1640275975.4,286047001.4,N
1640275995.3,286047003.9,Y
1640276015.1,286047000.3,P
1640276035.8,286046999.9,N
1640276055.7,286047002.8,P
1640276075.5,286047002.4,N
1640276095.4,286047000.5,N
1640276115.2,286047001.0,N
1640276135.0,286047000.8,N
1640276135.9,286047000.8,N
1640276155.8,286047001.0,N
1640276175.6,286046998.9,N
1640276195.5,286046999.1,N
1640276215.3,286046998.8,N
1640276235.1,286046998.5,N
1640276255.9,286046999.9,N
1640276275.7,286047002.7,N
1640276295.5,286047002.8,N
1640276315.4,286047001.6,N
1640276335.2,286047001.9,N
1640276355.1,286047000.2,N
1640276356.0,286047000.2,N
1640276375.8,286046999.8,N
1640276395.6,286047000.2,N
1640276415.5,286047000.4,N
1640276435.3,286047000.8,N
1640276455.2,286047000.9,N
1640276475.9,286047000.1,N
1640276495.7,286047002.4,N
1640276515.6,286046999.9,N
1640276535.4,286046999.0,N
1640276555.3,286046998.3,N
1640276575.1,286046999.0,N
1640276576.0,286046999.0,N
1640276595.8,286046998.1,N
1640276615.7,286046998.3,N
1640276635.5,286047001.0,N
1640276655.3,286046999.9,N
1640276675.2,286047002.7,N
1640276695.0,286047002.4,N
1640276695.9,286047002.4,N
1640276715.8,286047002.1,N
1640276735.6,286047002.0,N
1640276755.4,286047001.3,N
1640276775.3,286047002.7,N
1640276795.1,286047001.1,N
1640276815.9,286046998.1,N
1640276835.7,286046999.0,N
1640276855.5,286046998.6,N
1640276875.4,286047001.2,N
1640276895.2,286046998.4,N
1640276915.0,286047000.5,N
1640276916.0,286047000.5,N
1640276935.8,286047000.9,N
1640276955.6,286047000.5,N
1640276975.5,286047002.7,N
1640276995.3,286047000.4,N
1640277015.1,286047000.2,N
1640277035.9,286047000.7,N
1640277055.7,286046998.3,N
1640277075.6,286047000.6,N
1640277095.4,286046999.9,N
1640277115.2,286047000.3,N
1640277135.1,286047000.7,N
1640277136.0,286047000.7,N
1640277155.8,286046999.8,N
1640277175.7,286047000.3,N
1640277195.5,286047001.0,N
1640277215.3,286046998.5,N
1640277235.2,286046998.3,N
1640277255.0,286046998.3,N
1640277255.9,286046998.3,N
1640277275.8,286047000.3,N
1640277295.6,286046998.3,N
1640277315.4,286046997.4,N
1640277335.3,286046997.1,N
1640277355.1,286046997.3,N
1640277375.8,286046999.6,N
1640277395.7,286046999.0,N
1640277415.5,286047001.2,N
1640277435.4,286046999.8,N
1640277455.2,286047002.1,N
1640277475.0,286047001.7,N
1640277475.9,286047001.7,N
1640277495.8,286047004.4,Y
1640277515.6,286047001.6,P
1640277535.5,286047003.5,P
1640277555.3,286047003.4,N
1640277575.1,286047001.3,N
1640277595.9,286047001.9,N
1640277615.7,286047001.9,N
1640277635.6,286047001.6,N
1640277655.4,286047004.4,Y
1640277675.2,286047000.0,P
1640277695.1,286046999.9,N
1640277696.0,286046999.9,N
1640277715.8,286047000.9,N
1640277735.7,286047000.7,N
1640277755.5,286047000.8,N
1640277775.3,286047000.8,N
1640277795.2,286047001.0,N
1640277815.0,286047000.1,N
1640277815.9,286047000.1,N
1640277835.8,286046998.2,Y
1640277855.6,286046998.5,P
1640277875.4,286046998.6,N
1640277895.3,286046998.5,N
1640277915.1,286046998.3,N
1640277935.8,286046998.5,N
1640277955.7,286047000.9,N
1640277975.5,286047001.1,N
1640277995.4,286046998.5,N
1640278015.2,286047001.0,N
1640278035.0,286047001.0,N
1640278035.9,286047001.0,N
1640278055.8,286046999.8,N
1640278075.6,286046999.9,N
1640278095.5,286047002.8,N
1640278115.3,286047002.2,N
1640278135.1,286047001.5,N
1640278155.9,286047001.5,N
1640278175.7,286046999.7,N
1640278195.5,286047002.3,N
1640278215.4,286047001.6,N
1640278235.2,286047002.7,N
1640278255.1,286047002.5,N
1640278256.0,286047002.5,N
1640278275.8,286047002.2,N
1640278295.6,286047002.7,N
1640278315.5,286047000.1,N
1640278335.3,286047002.0,N
1640278355.1,286047003.7,N
1640278375.9,286047003.4,N
1640278395.7,286047005.4,Y
1640278415.6,286047004.2,P
1640278435.4,286047003.8,N
1640278455.2,286047001.6,N
1640278475.1,286047001.9,N
1640278476.0,286047001.9,N
1640278495.8,286047002.0,N
1640278515.7,286047002.6,N
1640278535.5,286046999.7,N
1640278555.3,286046999.9,N
1640278575.2,286047002.8,N
1640278595.0,286047000.6,N
1640278595.9,286047000.6,N
1640278615.8,286047001.1,N
1640278635.6,286047000.8,N
1640278655.4,286047000.7,N
1640278675.3,286046999.9,N
1640278695.1,286046998.2,N
1640278715.9,286046999.5,N
1640278735.7,286046999.1,N
1640278755.5,286046999.3,N
1640278775.4,286046998.1,N
1640278795.2,286046999.0,N
